Tucson, AZ

2:03 PM MST on October 21, 2019 (GMT -0700)
Tucson International

Weather History for KTUS - August, 2019

Change the Weather History Date:

Sunday, August 25, 2019

  Actual Average Record
Temperature  
Mean Temperature 87 °F 85 °F  
Max Temperature 97 °F 98 °F 106 °F (1985)
Min Temperature 76 °F 73 °F 60 °F (1900)
Degree Days  
Heating Degree Days 0 0  
Month to date heating degree days 0 0  
Since 1 June heating degree days 0 0  
Since 1 July heating degree days 0 0  
Cooling Degree Days 22 20  
Month to date cooling degree days 613 506  
Year to date cooling degree days 2390 2285  
Since 1 June cooling degree days 2018 1783  
Growing Degree Days 36 (Base 50)    
Moisture  
Dew Point 63 °F    
Average Humidity 45    
Maximum Humidity 64    
Minimum Humidity 25    
Precipitation  
Precipitation 0.00 in 0.07 in 0.80 in (1984)
Month to date precipitation 1.15 1.99  
Year to date precipitation 7.25 7.51  
Sea Level Pressure  
Sea Level Pressure 29.89 in    
Wind  
Wind Speed 6 mph (West)    
Max Wind Speed 16 mph    
Max Gust Speed 22 mph    
Visibility 10 miles    
Events      
T = Trace of Precipitation, MM = Missing Value Source: NWS Daily Summary

Daily Weather History Graph

Daily Weather History Graph

Search for Another Location

Airport or City:

Astronomy

Aug. 25, 2019 Rise Set
Actual Time 5:54 AM MST 6:56 PM MST
Civil Twilight 5:29 AM MST 7:21 PM MST
Nautical Twilight 4:59 AM MST 7:51 PM MST
Astronomical Twilight 4:28 AM MST 8:22 PM MST
Moon 12:42 AM MST (8/25) 3:09 PM MST (8/25)
Length of Visible Light 13h 52m
Length of Day
13h 02m
Waning Crescent, 28% of the Moon is Illuminated
Aug 25
Waning Crescent
Aug 30
New
Sep 5
First Quarter
Sep 13
Full
Sep 21
Last Quarter

Hourly Weather History & Observations

Time (MST) Temp. Heat Index Dew Point Humidity Pressure Visibility Wind Dir Wind Speed Gust Speed Precip Events Conditions
12:53 AM 81.0 °F 82.2 °F 63.0 °F 54% 29.91 in 10.0 mi Calm Calm - N/A   Clear
1:53 AM 80.1 °F 81.7 °F 64.0 °F 58% 29.91 in 10.0 mi South 4.6 mph - N/A   Clear
2:53 AM 79.0 °F - 64.0 °F 60% 29.91 in 10.0 mi South 5.8 mph - N/A   Clear
3:53 AM 78.1 °F - 64.0 °F 62% 29.92 in 10.0 mi South 6.9 mph - N/A   Clear
4:53 AM 77.0 °F - 64.0 °F 64% 29.93 in 10.0 mi South 4.6 mph - N/A   Clear
5:53 AM 77.0 °F - 64.0 °F 64% 29.95 in 10.0 mi South 3.5 mph - N/A   Clear
6:53 AM 78.1 °F - 64.0 °F 62% 29.97 in 10.0 mi South 4.6 mph - N/A   Mostly Cloudy
7:53 AM 82.0 °F 83.8 °F 64.9 °F 56% 29.97 in 10.0 mi Variable 3.5 mph - N/A   Overcast
8:53 AM 82.9 °F 84.4 °F 64.0 °F 53% 29.97 in 10.0 mi Calm Calm - N/A   Partly Cloudy
9:53 AM 84.9 °F 86.1 °F 64.0 °F 49% 29.97 in 10.0 mi North 4.6 mph - N/A   Partly Cloudy
10:53 AM 89.1 °F 90.3 °F 64.0 °F 43% 29.95 in 10.0 mi Variable 5.8 mph - N/A   Mostly Cloudy
11:53 AM 88.0 °F 89.3 °F 64.0 °F 45% 29.93 in 10.0 mi NW 6.9 mph 17.3 mph N/A   Mostly Cloudy
12:53 PM 91.0 °F 92.6 °F 64.0 °F 41% 29.90 in 10.0 mi WNW 9.2 mph - N/A   Clear
1:53 PM 93.0 °F 94.2 °F 63.0 °F 37% 29.87 in 10.0 mi West 8.1 mph - N/A   Clear
2:53 PM 96.1 °F 98.3 °F 64.0 °F 35% 29.84 in 10.0 mi West 6.9 mph - N/A   Clear
3:53 PM 95.0 °F 97.0 °F 64.0 °F 36% 29.82 in 10.0 mi West 6.9 mph 23.0 mph N/A   Clear
4:53 PM 95.0 °F 96.0 °F 63.0 °F 34% 29.81 in 10.0 mi WNW 13.8 mph 21.9 mph N/A   Clear
5:53 PM 95.0 °F 95.6 °F 62.1 °F 33% 29.80 in 10.0 mi West 9.2 mph 21.9 mph N/A   Clear
6:53 PM 93.0 °F 93.0 °F 61.0 °F 34% 29.80 in 10.0 mi NW 8.1 mph - N/A   Clear
7:53 PM 91.9 °F 91.5 °F 60.1 °F 34% 29.82 in 10.0 mi NNW 6.9 mph - N/A   Clear
8:53 PM 90.0 °F 89.1 °F 59.0 °F 35% 29.82 in 10.0 mi NNW 4.6 mph - N/A   Clear
9:53 PM 89.1 °F 88.2 °F 59.0 °F 36% 29.82 in 10.0 mi NW 3.5 mph - N/A   Clear
10:53 PM 84.9 °F 84.8 °F 60.1 °F 43% 29.81 in 10.0 mi SW 4.6 mph - N/A   Clear
11:53 PM 82.9 °F 83.2 °F 60.1 °F 46% 29.83 in 10.0 mi WSW 6.9 mph - N/A   Clear